Abbotsford, British Columbia

8:14 PM PST on February 22, 2017 (GMT -0800)
Abbotsford

Weather History for CYXX - April, 2014

Change the Weather History Date:

Sunday, April 20, 2014

  Actual Average Record
Temperature  
Mean Temperature 48 °F -  
Max Temperature 56 °F 61 °F 82 °F (2016)
Min Temperature 41 °F 42 °F 32 °F (2007)
Degree Days  
Heating Degree Days 16    
Moisture  
Dew Point 40 °F    
Average Humidity 68    
Maximum Humidity 87    
Minimum Humidity 49    
Precipitation  
Precipitation 0.00 in 0.13 in - ()
Sea Level Pressure  
Sea Level Pressure 30.23 in    
Wind  
Wind Speed 6 mph ()    
Max Wind Speed 13 mph    
Max Gust Speed 20 mph    
Visibility 11.5 miles    
Events Rain    
Averages and records for this station are not official NWS values.
T = Trace of Precipitation, MM = Missing Value Source: Averaged Metar Reports

Daily Weather History Graph

Daily Weather History Graph

Search for Another Location

Airport or City:

Trip Planner

Search our weather history database for the weather conditions in past years. The results will help you decide how hot, cold, wet, or windy it might be!

Date:

Astronomy

Apr. 20, 2014 Rise Set
Actual Time 6:08 AM PDT 8:09 PM PDT
Civil Twilight 5:34 AM PDT 8:43 PM PDT
Nautical Twilight 4:52 AM PDT 9:25 PM PDT
Astronomical Twilight 4:05 AM PDT 10:13 PM PDT
Moon 1:04 AM PDT (4/20) 10:24 AM PDT (4/20)
Length of Visible Light 15h 09m
Length of Day
14h 01m
Waning Gibbous, 67% of the Moon is Illuminated
Apr 20
Waning Gibbous
Apr 22
Last Quarter
Apr 28
New
May 6
First Quarter
May 14
Full

Hourly Weather History & Observations

Time (PDT) Temp. Windchill Dew Point Humidity Pressure Visibility Wind Dir Wind Speed Gust Speed Precip Events Conditions
12:00 AM 48.2 °F - 41.0 °F 76% 30.14 in 10.0 mi South 12.7 mph 19.6 mph N/A   Mostly Cloudy
1:00 AM 48.2 °F - 41.0 °F 76% 30.17 in 10.0 mi South 10.4 mph - N/A   Mostly Cloudy
2:00 AM 46.4 °F 41.1 °F 39.2 °F 76% 30.19 in 10.0 mi SSE 11.5 mph - N/A   Mostly Cloudy
3:00 AM 46.4 °F 41.9 °F 39.2 °F 76% 30.22 in 10.0 mi South 9.2 mph - N/A   Mostly Cloudy
4:00 AM 46.4 °F 42.4 °F 39.2 °F 76% 30.24 in 10.0 mi South 8.1 mph - N/A   Mostly Cloudy
5:00 AM 44 °F - 39 °F 76% 30.26 in 10 mi South 3.5 mph - -   Scattered Clouds
5:00 AM 44.6 °F - 39.2 °F 81% 30.26 in 10.0 mi South 2.3 mph - N/A   Mostly Cloudy
6:00 AM 44.6 °F 42.2 °F 39.2 °F 81% 30.25 in 20.0 mi SSW 4.6 mph - N/A   Mostly Cloudy
7:00 AM 42.8 °F 40.1 °F 39.2 °F 87% 30.26 in 30.0 mi NE 4.6 mph - N/A   Scattered Clouds
8:00 AM 46.4 °F 43.5 °F 41.0 °F 81% 30.28 in 30.0 mi North 5.8 mph - N/A   Mostly Cloudy
9:00 AM 48.2 °F - 41.0 °F 76% 30.30 in 25.0 mi West 2.3 mph - N/A   Mostly Cloudy
10:00 AM 50.0 °F - 41.0 °F 71% 30.30 in 25.0 mi SW 2.3 mph - N/A   Mostly Cloudy
11:00 AM 53 °F - 39 °F 49% 30.30 in 25 mi North 2.3 mph - -   Scattered Clouds
11:00 AM 53.6 °F - 39.2 °F 58% 30.30 in 25.0 mi Variable 2.3 mph - N/A   Mostly Cloudy
12:00 PM 53.6 °F - 39.2 °F 58% 30.29 in 25.0 mi Variable 3.5 mph - N/A   Overcast
1:00 PM 55.4 °F - 39.2 °F 54% 30.27 in 25.0 mi West 6.9 mph - N/A   Overcast
2:00 PM 55.4 °F - 41.0 °F 58% 30.26 in 25.0 mi SSW 5.8 mph - N/A   Overcast
3:00 PM 57.2 °F - 39.2 °F 51% 30.25 in 25.0 mi Calm Calm - N/A   Overcast
4:00 PM 55.4 °F - 39.2 °F 54% 30.24 in 20.0 mi Variable 2.3 mph - N/A Rain Light Rain Showers
5:00 PM 53 °F - 40 °F 51% 30.23 in 28 mi NW 9.2 mph - - Rain Light Rain Showers
5:00 PM 53.6 °F - 41.0 °F 62% 30.23 in 30.0 mi WNW 8.1 mph - N/A Rain Light Rain Showers
5:21 PM 53.6 °F - 39.2 °F 58% 30.23 in 30.0 mi NW 4.6 mph - N/A   Overcast
6:00 PM 53.6 °F - 39.2 °F 58% 30.22 in 30.0 mi North 6.9 mph - N/A   Overcast
7:00 PM 51.8 °F - 41.0 °F 67% 30.20 in 30.0 mi NNE 8.1 mph - N/A   Mostly Cloudy
8:00 PM 51.8 °F - 41.0 °F 67% 30.18 in 30.0 mi NNE 6.9 mph - N/A   Mostly Cloudy
9:00 PM 50.0 °F - 41.0 °F 71% 30.18 in 10.0 mi NNE 9.2 mph - N/A   Overcast
10:00 PM 50.0 °F - 41.0 °F 71% 30.17 in 10.0 mi NNE 6.9 mph - N/A   Overcast
11:00 PM 48 °F - 41 °F 70% 30.16 in 10 mi NNE 6.9 mph - -   Overcast
11:00 PM 48.2 °F - 41.0 °F 76% 30.15 in 10.0 mi NNE 6.9 mph - N/A   Overcast